Skip Page Navigation
NASA JPL Caltech
NASA Logo - Jet Propulsion Laboratory + View the NASA Portal
+ Near-Earth Object (NEO) Program
Search JPL
JPL Home Earth Solar System Stars & Galaxies Technology
JPL Solar System Dynamics
BODIES ORBITS EPHEMERIDES TOOLS PHYSICAL DATA DISCOVERY FAQ SITE MAP
JPL Small-Body Database Browser
Search: [ help ]  
13802 (1998 WR3)
Classification: Main-belt Asteroid          SPK-ID: 2013802
Ephemeris | Orbit Diagram | Orbital Elements | Physical Parameters | Discovery Circumstances | Close-Approach Data ]

[ show orbit diagram ]
Orbital Elements at Epoch 2457000.5 (2014-Dec-09.0) TDB
Reference: JPL 16 (heliocentric ecliptic J2000)
 Element Value Uncertainty (1-sigma)   Units 
e .1535063382540234 5.0714e-08  
a 2.255516883518563 1.4375e-08 AU
q 1.909280745859502 1.183e-07 AU
i 7.891989770763017 5.6907e-06 deg
node 58.31378423329685 3.9188e-05 deg
peri 224.3542450907169 4.3878e-05 deg
M 30.16938719298441 1.906e-05 deg
tp 2456896.811274013125
(2014-Aug-27.31127401)
6.5602e-05 JED
period 1237.278739422164
3.39
1.1828e-05
3.238e-08
d
yr
n .2909611137164838 2.7815e-09 deg/d
Q 2.601753021177624 1.6581e-08 AU
  Orbit Determination Parameters
   # obs. used (total)      1007  
   data-arc span      11999 days (32.85 yr)  
   first obs. used      1981-10-30  
   last obs. used      2014-09-06  
   planetary ephem.      DE431  
   SB-pert. ephem.      SB431-BIG16  
   condition code      0  
   fit RMS      .50791  
   data source      ORB  
   producer      Otto Matic  
   solution date      2015-Jan-08 02:21:14  

Additional Information
 Earth MOID = .9034 AU 
 T_jup = 3.596 
[ show covariance matrix ]

Ephemeris | Orbit Diagram | Orbital Elements | Physical Parameters | Discovery Circumstances | Close-Approach Data ]

Physical Parameter Table
Parameter Symbol Value Units Sigma Reference Notes
absolute magnitude H 13.7 mag n/a MPO263472  

13802 (1998 WR3)          Discovered 1998-Nov-18 by Ueda, S., Kaneda, H. at Kushiro
Reference: 20000222/Numbers.arcLast Updated: 2004-04-19

[ show close-approach data ]
Alternate Designations
 1998 WR3 = 1981 UD7 = 1997 JK16 
Ephemeris | Orbit Diagram | Orbital Elements | Physical Parameters | Discovery Circumstances | Close-Approach Data ]
ABOUT SSD CREDITS/AWARDS PRIVACY/COPYRIGHT GLOSSARY LINKS
FirstGov 2015-Apr-27 05:35 UT
(server date/time)  
NASA Home Page
Site Manager:   Ryan S. Park
Webmaster  Alan B. Chamberlin